Location: Peebles
(55.6412°N, 3.1714°W)
Time: 08:06:53
(UTC+01:00)

Cosmos 1867 - Pass Details

Date: 24 January 2022
Orbit: 774 x 801 km, 65.0° (Epoch: 27 May)

Event Time Altitude Azimuth Distance (km) Brightness Sun altitude
Rises 06:29:35 0° 184° (S) 3,269 6.9 -15.1°
Reaches altitude 10° 06:32:17 10° 173° (S) 2,349 6.3 -14.7°
Maximum altitude 06:36:46 27° 117° (ESE) 1,489 5.9 -14.1°
Drops below altitude 10° 06:41:16 10° 61° (ENE) 2,376 6.7 -13.5°
Sets 06:44:01 0° 50° (NE) 3,314 7.3 -13.1°
